BREEZE-M DEB (TANK), 50004

Orbit data source: Space-Track

BREEZE-M DEB (TANK), 50004 is space debris in HEO originally from a launch on Mon, 13 Dec 2021 UTC launched from the Tyuratam Missile And Space Complex (TTMTR). Debris objects in space refer to the collection of defunct objects orbiting the Earth. Examples of debris include non-operational satellites, rocket bodies, and fragments generated from explosions, collisions, or faulty payload assembly.

Loading next visibility...
Identifier
50004, 2021-123D
Orbit
HEO
Country
Flag of CISCIS
Related business
Manufacturer
Khrunichev
Mission
Spacecraft
Bus & Motor
BRIZ TANK, Unknown motor
Mass
~1,000 kg wet, 1,000 kg dry
Launch date (UTC)
2021-12-13 (5 years ago)
Launch vehicle
Unknown
Launch site
Tyuratam Missile And Space Complex (TTMTR)
Object type
Payload
Rocket body
Debris
Shape & HBR
Torus, 2.0 m
Radar Cross Section
8.218 m², Large (>1 m²)

Expand to show TLE details & history
Last TLE update: 3 days ago

TLE from 3 days ago
0 BREEZE-M DEB (TANK)
1 50004U 21123D   26170.77524974  .00007785  00000-0  91017-3 0  9997
2 50004  49.5040 253.9074 6306889  87.5555 338.2850  3.61592871 57157
Epoch: 2026-06-19T18:36Z
TLE epoch observation values (Epoch: 2026-06-19T18:36:21.577Z)
Latitude
-0.00002°
Longitude
66.83175°
Altitude
4,132.842 km
Speed
7.323 km/s
True Right ascension
16h 55m 41s
True Declination
0° 00' 00"
Sunlit
Object was in full shadow at epoch
Visualization orbit readout
Latitude
Unknown
Longitude
Unknown
Altitude
Unknown
Speed
Unknown
Apparent Right ascension
Unknown
Apparent Declination
Unknown
Sunlit
N/A
Visualization observer readout
Local Sidereal Time
21:34:24
Azimuth
Unknown
Elevation
Unknown
Doppler factor
Unknown
Orbital elements
Apogee altitude
22,861.829 km
Perigee altitude
243.999 km
Semi-major axis
17,931.051 km
Eccentricity
0.63069
Inclination
49.504°
RAAN
253.9074°
Arg. of periapsis
87.5555°
True anomaly
272.50961°
Mean anomaly
338.285°
Eccentric anomaly
311.0221°
Mean motion
0.90393 °/min
Orbital period
398.26 mins
BSTAR
0.00091017
Loading maneuver chart data...
Computing Atmospheric mass density...
Loading historical data...
Loading historical data...
Loading historical data...
Loading historical data...
Loading historical data...
Loading historical data...
Loading historical data...
Other satellites on launch #123 in the year 2021 (2021-12-13 UTC)

Documentation

Showing up to 5 results
|